Location: LDNL
(36.4545°S, 141.6685°E)
Time: 05:56:17
(UTC+10:00)

deb Explorer IX - All Passes

Search period start: 10 August 2022 00:00
Search period end: 20 August 2022 00:00
Orbit: 532 x 1067 km, 38.8° (Epoch: 08 August)

Date Brightness Start Highest point End Pass type
(mag) Time Alt. Az. Time Alt. Az. Time Alt. Az.
10 Aug - 14:21:47 10° N 14:25:05 14° NE 14:28:14 10° ENE daylight
10 Aug - 16:05:06 10° NW 16:11:14 46° NNE 16:16:34 10° E daylight
10 Aug - 17:51:45 10° W 17:57:45 82° SSW 18:02:51 10° ESE daylight
10 Aug - 19:39:06 10° W 19:44:28 69° S 19:49:04 10° E visible
10 Aug - 21:26:05 10° WSW 21:30:51 60° NNW 21:35:02 10° ENE visible
10 Aug - 23:14:14 10° WNW 23:16:26 14° NW 23:18:33 10° N night (unlit)
11 Aug - 13:51:53 10° NNE 13:55:00 14° NE 13:57:59 10° ENE daylight
11 Aug - 15:34:53 10° NW 15:41:08 44° NNE 15:46:38 10° E daylight
11 Aug - 17:21:28 10° WNW 17:27:41 84° SSW 17:32:58 10° ESE daylight
11 Aug - 19:08:51 10° W 19:14:27 69° S 19:19:12 10° E visible
11 Aug - 20:55:56 10° WSW 21:00:54 65° NNW 21:05:13 10° ENE visible
11 Aug - 22:43:52 10° WNW 22:46:33 16° NW 22:49:04 10° N night (unlit)
12 Aug - 13:22:04 10° NNE 13:24:53 13° NE 13:27:38 10° ENE daylight
12 Aug - 15:04:40 10° NW 15:11:00 43° NNE 15:16:39 10° E daylight
12 Aug - 16:51:09 10° WNW 16:57:35 87° S 17:03:04 10° ESE daylight
12 Aug - 18:38:34 10° W 18:44:23 69° S 18:49:20 10° E visible
12 Aug - 20:25:43 10° WSW 20:30:56 69° NNW 20:35:24 10° ENE visible
12 Aug - 22:13:31 10° W 22:16:37 18° NW 22:19:31 10° N night (unlit)
13 Aug - 12:52:19 10° NNE 12:54:47 12° NE 12:57:11 10° ENE daylight
13 Aug - 14:34:27 10° NW 14:40:51 41° NNE 14:46:37 10° E daylight
13 Aug - 16:20:50 10° WNW 16:27:26 89° SW 16:33:08 10° ESE daylight
13 Aug - 18:08:16 10° W 18:14:18 69° S 18:19:26 10° E daylight
13 Aug - 19:55:29 10° WSW 20:00:56 74° NNW 20:05:33 10° ENE visible
13 Aug - 21:43:11 10° W 21:46:42 20° NW 21:49:55 10° N visible
14 Aug - 12:22:45 10° NNE 12:24:39 11° NE 12:26:30 10° ENE daylight
14 Aug - 14:04:15 10° NW 14:10:41 39° NNE 14:16:33 10° E daylight
14 Aug - 15:50:30 10° WNW 15:57:17 88° NNE 16:03:11 10° ESE daylight
14 Aug - 17:37:56 10° W 17:44:11 70° S 17:49:31 10° E daylight
14 Aug - 19:25:13 10° WSW 19:30:54 78° NNW 19:35:42 10° ENE visible
14 Aug - 21:12:49 10° W 21:16:45 23° NW 21:20:16 10° NNE visible
15 Aug - 11:53:42 10° NE 11:54:30 10° NE 11:55:18 10° NE daylight
15 Aug - 13:34:04 10° NNW 13:40:29 38° NNE 13:46:27 10° E daylight
15 Aug - 15:20:10 10° WNW 15:27:05 86° NNE 15:33:10 10° ESE daylight
15 Aug - 17:07:35 10° W 17:14:03 70° S 17:19:34 10° E daylight
15 Aug - 18:54:55 10° WSW 19:00:50 82° NNW 19:05:49 10° ENE visible
15 Aug - 20:42:28 10° W 20:46:46 26° NW 20:50:35 10° NNE visible
16 Aug - 13:03:53 10° NNW 13:10:16 36° NNE 13:16:18 10° E daylight
16 Aug - 14:49:50 10° WNW 14:56:51 83° NNE 15:03:09 10° ESE daylight
16 Aug - 16:37:13 10° W 16:43:52 71° S 16:49:36 10° E daylight
16 Aug - 18:24:35 10° WSW 18:30:44 85° NNW 18:35:56 10° ENE visible
16 Aug - 20:12:06 10° W 20:16:47 29° NW 20:20:52 10° NNE visible
17 Aug - 12:33:44 10° NNW 12:40:03 34° NNE 12:46:07 10° E daylight
17 Aug - 14:19:30 10° WNW 14:26:37 81° NNE 14:33:05 10° ESE daylight
17 Aug - 16:06:50 10° W 16:13:39 72° S 16:19:35 10° E daylight
17 Aug - 17:54:15 10° WSW 18:00:36 88° NNW 18:06:00 10° ENE daylight
17 Aug - 19:41:44 10° W 19:46:45 32° NW 19:51:07 10° NNE visible
18 Aug - 12:03:37 10° NNW 12:09:49 32° NE 12:15:52 10° E daylight
18 Aug - 13:49:11 10° WNW 13:56:21 78° NNE 14:02:59 10° ESE daylight
18 Aug - 15:36:28 10° W 15:43:25 72° S 15:49:33 10° E daylight
18 Aug - 17:23:53 10° WSW 17:30:26 89° SSE 17:36:02 10° ENE daylight
18 Aug - 19:11:20 10° W 19:16:42 35° NNW 19:21:20 10° NNE visible
19 Aug - 11:33:31 10° NNW 11:39:34 31° NE 11:45:35 10° E daylight
19 Aug - 13:18:54 10° WNW 13:26:04 75° NNE 13:32:50 10° ESE daylight
19 Aug - 15:06:05 10° W 15:13:08 73° S 15:19:29 10° E daylight
19 Aug - 16:53:30 10° WSW 17:00:14 87° SSE 17:06:02 10° ENE daylight
19 Aug - 18:40:55 10° W 18:46:36 39° NNW 18:51:30 10° NE visible
